This is the latest recevied weather packets stored in our database for station/object WA4OPQ-1. If no packets are shown the sender has not sent any weather packets the latest 10 day(s).
| Time | Temp. | Humidity | Pressure | Rain* | Wind** | Luminosity | Snow |
|---|---|---|---|---|---|---|---|
| 1787728237 | 20° C | 94% | 1014 hPa | 0 mm | 0 m/s | 0 W/m² | - |
| 1787727749 | 20° C | 94% | 1014 hPa | 0 mm | 0 m/s | 0 W/m² | - |
| 1787727154 | 20° C | 91% | 1014 hPa | 0 mm | 0 m/s | 0 W/m² | - |
| 1787726624 | 20° C | 90% | 1013.9 hPa | 0 mm | 0 m/s | 0 W/m² | - |
| 1787726064 | 20.56° C | 89% | 1014 hPa | 0 mm | 0 m/s | 0 W/m² | - |
| 1787725534 | 20.56° C | 87% | 1014.2 hPa | 0 mm | 0 m/s | 0 W/m² | - |
| 1787724989 | 20.56° C | 85% | 1014 hPa | 0 mm | 0 m/s | 0 W/m² | - |
| 1787724454 | 21.11° C | 85% | 1014.1 hPa | 0 mm | 0 m/s | 0 W/m² | - |
| 1787723857 | 20.56° C | 83% | 1014 hPa | 0 mm | 0 m/s | 0 W/m² | - |
| 1787723359 | 21.11° C | 85% | 1014.2 hPa | 0 mm | 0 m/s | 0 W/m² | - |
| 1787722769 | 21.11° C | 85% | 1014.3 hPa | 0 mm | 0 m/s | 0 W/m² | - |
| 1787722237 | 21.11° C | 83% | 1014.2 hPa | 0 mm | 0 m/s | 0 W/m² | - |
| 1787721704 | 21.11° C | 84% | 1014.7 hPa | 0 mm | 0 m/s | 0 W/m² | - |
| 1787721154 | 21.11° C | 85% | 1014.6 hPa | 0 mm | 0 m/s | 0 W/m² | - |
| 1787720574 | 21.11° C | 86% | 1014.3 hPa | 0 mm | 0 m/s | 0 W/m² | - |
| 1787720084 | 21.11° C | 85% | 1014.2 hPa | 0 mm | 0 m/s | 0 W/m² | - |
| 1787719544 | 21.11° C | 84% | 1014.5 hPa | 0 mm | 0 m/s | 0 W/m² | - |
| 1787719049 | 21.67° C | 83% | 1014.3 hPa | 0 mm | 0 m/s | 0 W/m² | - |
| 1787718549 | 21.67° C | 83% | 1014.5 hPa | 0 mm | 0 m/s | 0 W/m² | - |
| 1787717480 | 21.67° C | 82% | 1014.2 hPa | 0 mm | 0 m/s | 0 W/m² | - |
| 1787716979 | 21.11° C | 83% | 1014.2 hPa | 0 mm | 0 m/s | 0 W/m² | - |
| 1787716434 | 21.11° C | 83% | 1014.4 hPa | 0 mm | 0 m/s | 0 W/m² | - |
| 1787715839 | 21.11° C | 83% | 1014.2 hPa | 0 mm | 0 m/s | 0 W/m² | - |
| 1787715264 | 21.11° C | 83% | 1014.2 hPa | 0 mm | 0 m/s | 0 W/m² | - |
| 1787714747 | 21.67° C | 82% | 1014.1 hPa | 0 mm | 0 m/s | 0 W/m² | - |
* Rain latest hour (hover to see other rain measurements)
** Current wind speed in m/s (hover to see current wind gust speed)